Time,TemperatureF,DewpointF,PressureIn,WindDirection,WindDirectionDegrees,WindSpeedMPH,WindSpeedGustMPH,Humidity,HourlyPrecipIn,Conditions,Clouds,dailyrainin,SoftwareType,DateUTC
2013-06-02 00:02:00,69.1,50.7,28.56,North,0,1.0,6.0,52,0.00,,,0.00,meteohub,2013-06-02 05:02:00,
2013-06-02 00:07:00,69.1,50.7,28.56,NE,45,2.0,6.0,52,0.00,,,0.00,meteohub,2013-06-02 05:07:00,
2013-06-02 00:12:00,69.1,51.3,28.56,East,90,2.0,6.0,53,0.00,,,0.00,meteohub,2013-06-02 05:12:00,
2013-06-02 00:17:00,68.9,51.1,28.56,East,90,1.0,6.0,53,0.00,,,0.00,meteohub,2013-06-02 05:17:00,
2013-06-02 00:22:00,68.7,51.4,28.56,NE,45,4.0,6.0,54,0.00,,,0.00,meteohub,2013-06-02 05:22:00,
2013-06-02 00:27:00,68.5,51.3,28.56,NE,45,1.0,6.0,54,0.00,,,0.00,meteohub,2013-06-02 05:27:00,
2013-06-02 00:32:00,68.4,52.0,28.56,East,90,3.0,5.0,56,0.00,,,0.00,meteohub,2013-06-02 05:32:00,
2013-06-02 00:37:00,68.2,51.8,28.56,NE,45,2.0,4.0,56,0.00,,,0.00,meteohub,2013-06-02 05:37:00,
2013-06-02 00:42:00,68.0,51.8,28.56,NE,45,0.0,4.0,56,0.00,,,0.00,meteohub,2013-06-02 05:42:00,
2013-06-02 00:47:00,68.0,52.2,28.56,North,0,1.0,4.0,57,0.00,,,0.00,meteohub,2013-06-02 05:47:00,
2013-06-02 00:52:00,67.6,52.3,28.56,NE,45,3.0,3.0,58,0.00,,,0.00,meteohub,2013-06-02 05:52:00,
2013-06-02 00:57:00,67.6,52.3,28.56,NE,45,1.0,3.0,58,0.00,,,0.00,meteohub,2013-06-02 05:57:00,
2013-06-02 01:02:00,67.6,52.9,28.56,North,0,2.0,3.0,59,0.00,,,0.00,meteohub,2013-06-02 06:02:00,
2013-06-02 01:07:00,67.5,52.7,28.56,NE,45,1.0,4.0,59,0.00,,,0.00,meteohub,2013-06-02 06:07:00,
2013-06-02 01:12:00,67.6,52.9,28.56,NE,45,3.0,5.0,59,0.00,,,0.00,meteohub,2013-06-02 06:12:00,
2013-06-02 01:17:00,67.5,52.7,28.56,NE,45,1.0,5.0,59,0.00,,,0.00,meteohub,2013-06-02 06:17:00,
2013-06-02 01:22:00,67.3,52.9,28.55,East,90,1.0,5.0,60,0.00,,,0.00,meteohub,2013-06-02 06:22:00,
2013-06-02 01:27:00,67.3,52.9,28.56,NE,45,1.0,4.0,60,0.00,,,0.00,meteohub,2013-06-02 06:27:00,
2013-06-02 01:33:00,67.3,52.9,28.56,NE,45,0.0,3.0,60,0.00,,,0.00,meteohub,2013-06-02 06:33:00,
2013-06-02 01:38:00,67.3,52.9,28.55,NE,45,1.0,4.0,60,0.00,,,0.00,meteohub,2013-06-02 06:38:00,
2013-06-02 01:43:00,67.1,52.7,28.56,NE,45,1.0,4.0,60,0.00,,,0.00,meteohub,2013-06-02 06:43:00,
2013-06-02 01:48:00,66.9,52.5,28.56,NE,45,1.0,4.0,60,0.00,,,0.00,meteohub,2013-06-02 06:48:00,
2013-06-02 01:53:00,66.6,52.7,28.56,NE,45,1.0,2.0,61,0.00,,,0.00,meteohub,2013-06-02 06:53:00,
2013-06-02 01:58:00,66.6,53.1,28.56,NE,45,1.0,2.0,62,0.00,,,0.00,meteohub,2013-06-02 06:58:00,
2013-06-02 02:03:00,66.2,52.9,28.56,North,0,1.0,2.0,62,0.00,,,0.00,meteohub,2013-06-02 07:03:00,
2013-06-02 02:08:00,66.2,52.9,28.56,North,0,1.0,2.0,62,0.00,,,0.00,meteohub,2013-06-02 07:08:00,
2013-06-02 02:13:00,65.8,52.9,28.56,NW,315,1.0,2.0,63,0.00,,,0.00,meteohub,2013-06-02 07:13:00,
2013-06-02 02:18:00,65.7,52.7,28.56,NW,315,0.0,1.0,63,0.00,,,0.00,meteohub,2013-06-02 07:18:00,
2013-06-02 02:23:00,65.5,52.5,28.56,North,0,0.0,2.0,63,0.00,,,0.00,meteohub,2013-06-02 07:23:00,
2013-06-02 02:28:00,65.1,52.2,28.56,North,0,0.0,2.0,63,0.00,,,0.00,meteohub,2013-06-02 07:28:00,
2013-06-02 02:33:00,64.8,52.3,28.56,NW,315,1.0,2.0,64,0.00,,,0.00,meteohub,2013-06-02 07:33:00,
2013-06-02 02:38:00,64.8,52.7,28.56,NW,315,1.0,2.0,65,0.00,,,0.00,meteohub,2013-06-02 07:38:00,
2013-06-02 02:43:00,64.4,52.3,28.56,NW,315,1.0,2.0,65,0.00,,,0.00,meteohub,2013-06-02 07:43:00,
2013-06-02 02:48:00,64.4,52.3,28.56,NW,315,0.0,2.0,65,0.00,,,0.00,meteohub,2013-06-02 07:48:00,
2013-06-02 02:53:00,64.0,52.0,28.56,West,270,0.0,2.0,65,0.00,,,0.00,meteohub,2013-06-02 07:53:00,
2013-06-02 02:58:00,63.3,51.4,28.57,North,0,1.0,1.0,65,0.00,,,0.00,meteohub,2013-06-02 07:58:00,
2013-06-02 03:03:00,63.1,51.6,28.57,NW,315,0.0,1.0,66,0.00,,,0.00,meteohub,2013-06-02 08:03:00,
2013-06-02 03:08:00,62.8,51.3,28.57,NW,315,0.0,1.0,66,0.00,,,0.00,meteohub,2013-06-02 08:08:00,
2013-06-02 03:13:00,62.4,51.3,28.57,WNW,293,1.0,2.0,67,0.00,,,0.00,meteohub,2013-06-02 08:13:00,
2013-06-02 03:18:00,62.1,50.9,28.58,WNW,293,2.0,2.0,67,0.00,,,0.00,meteohub,2013-06-02 08:18:00,
2013-06-02 03:23:00,62.1,51.4,28.58,North,0,1.0,2.0,68,0.00,,,0.00,meteohub,2013-06-02 08:23:00,
2013-06-02 03:28:00,62.1,51.4,28.58,NE,45,0.0,2.0,68,0.00,,,0.00,meteohub,2013-06-02 08:28:00,
2013-06-02 03:33:00,62.1,51.4,28.58,North,0,1.0,2.0,68,0.00,,,0.00,meteohub,2013-06-02 08:33:00,
2013-06-02 03:38:00,61.9,51.6,28.58,NW,315,1.0,2.0,69,0.00,,,0.00,meteohub,2013-06-02 08:38:00,
2013-06-02 03:43:00,61.9,52.0,28.58,North,0,1.0,1.0,70,0.00,,,0.00,meteohub,2013-06-02 08:43:00,
2013-06-02 03:48:00,62.1,52.2,28.58,NW,315,1.0,1.0,70,0.00,,,0.00,meteohub,2013-06-02 08:48:00,
2013-06-02 03:53:00,62.8,52.5,28.58,North,0,3.0,3.0,69,0.00,,,0.00,meteohub,2013-06-02 08:53:00,
2013-06-02 03:58:00,63.3,52.5,28.58,NE,45,8.0,8.0,68,0.00,,,0.00,meteohub,2013-06-02 08:58:00,
2013-06-02 04:03:00,64.0,52.9,28.58,North,0,2.0,9.0,67,0.00,,,0.00,meteohub,2013-06-02 09:03:00,
2013-06-02 04:08:00,64.2,52.7,28.58,NE,45,6.0,9.0,66,0.00,,,0.00,meteohub,2013-06-02 09:08:00,
2013-06-02 04:13:00,64.0,52.5,28.59,North,0,7.0,13.0,66,0.00,,,0.00,meteohub,2013-06-02 09:13:00,
2013-06-02 04:18:00,63.7,52.5,28.59,NE,45,4.0,13.0,67,0.00,,,0.00,meteohub,2013-06-02 09:18:00,
2013-06-02 04:23:00,63.5,52.3,28.60,NE,45,9.0,13.0,67,0.00,,,0.00,meteohub,2013-06-02 09:23:00,
2013-06-02 04:28:00,63.1,52.3,28.60,NE,45,4.0,14.0,68,0.00,,,0.00,meteohub,2013-06-02 09:28:00,
2013-06-02 04:33:00,63.0,52.7,28.60,ENE,68,7.0,14.0,69,0.00,,,0.00,meteohub,2013-06-02 09:33:00,
2013-06-02 04:38:00,62.6,52.3,28.60,North,0,4.0,14.0,69,0.00,,,0.00,meteohub,2013-06-02 09:38:00,
2013-06-02 04:53:00,62.1,52.5,28.60,NE,45,9.0,10.0,71,0.00,,,0.00,meteohub,2013-06-02 09:53:00,
2013-06-02 04:58:00,61.9,52.3,28.60,NE,45,8.0,13.0,71,0.00,,,0.00,meteohub,2013-06-02 09:58:00,
2013-06-02 05:03:00,61.9,52.7,28.61,NE,45,11.0,13.0,72,0.00,,,0.00,meteohub,2013-06-02 10:03:00,
2013-06-02 05:08:00,61.3,52.7,28.61,NE,45,7.0,13.0,73,0.00,,,0.00,meteohub,2013-06-02 10:08:00,
2013-06-02 05:13:00,61.5,52.7,28.61,NE,45,2.0,11.0,73,0.00,,,0.00,meteohub,2013-06-02 10:13:00,
2013-06-02 05:18:00,61.2,52.9,28.61,North,0,4.0,11.0,74,0.00,,,0.00,meteohub,2013-06-02 10:18:00,
2013-06-02 05:23:00,61.0,53.1,28.62,NE,45,0.0,9.0,75,0.00,,,0.00,meteohub,2013-06-02 10:23:00,
2013-06-02 05:28:00,60.8,53.2,28.62,SE,135,1.0,8.0,76,0.00,,,0.00,meteohub,2013-06-02 10:28:00,
2013-06-02 05:33:00,60.6,53.1,28.62,NE,45,1.0,8.0,76,0.00,,,0.00,meteohub,2013-06-02 10:33:00,
2013-06-02 05:38:00,60.4,53.2,28.62,NE,45,2.0,5.0,77,0.00,,,0.00,meteohub,2013-06-02 10:38:00,
2013-06-02 05:43:00,60.3,53.4,28.62,ENE,68,1.0,5.0,78,0.00,,,0.00,meteohub,2013-06-02 10:43:00,
2013-06-02 05:48:00,60.3,53.4,28.62,North,0,1.0,7.0,78,0.00,,,0.00,meteohub,2013-06-02 10:48:00,
2013-06-02 05:53:00,60.1,53.2,28.62,NE,45,4.0,9.0,78,0.00,,,0.00,meteohub,2013-06-02 10:53:00,
2013-06-02 05:58:00,59.9,53.1,28.63,NE,45,4.0,9.0,78,0.00,,,0.00,meteohub,2013-06-02 10:58:00,
2013-06-02 06:03:00,59.7,52.9,28.63,NE,45,1.0,9.0,78,0.00,,,0.00,meteohub,2013-06-02 11:03:00,
2013-06-02 06:08:00,59.4,52.9,28.63,NE,45,1.0,7.0,79,0.00,,,0.00,meteohub,2013-06-02 11:08:00,
2013-06-02 06:13:00,59.4,53.2,28.64,NE,45,1.0,7.0,80,0.00,,,0.00,meteohub,2013-06-02 11:13:00,
2013-06-02 06:18:00,59.4,53.2,28.64,NE,45,1.0,6.0,80,0.00,,,0.00,meteohub,2013-06-02 11:18:00,
2013-06-02 06:23:00,59.2,53.1,28.64,NE,45,1.0,4.0,80,0.00,,,0.00,meteohub,2013-06-02 11:23:00,
2013-06-02 06:28:00,59.2,53.1,28.64,NE,45,1.0,2.0,80,0.00,,,0.00,meteohub,2013-06-02 11:28:00,
2013-06-02 06:33:00,59.2,53.1,28.64,NE,45,1.0,2.0,80,0.00,,,0.00,meteohub,2013-06-02 11:33:00,
2013-06-02 06:38:00,59.0,52.9,28.64,North,0,0.0,2.0,80,0.00,,,0.00,meteohub,2013-06-02 11:38:00,
2013-06-02 06:43:00,59.0,52.9,28.64,NE,45,1.0,2.0,80,0.00,,,0.00,meteohub,2013-06-02 11:43:00,
2013-06-02 06:48:00,59.2,53.1,28.64,North,0,1.0,2.0,80,0.00,,,0.00,meteohub,2013-06-02 11:48:00,
2013-06-02 06:53:00,59.7,53.2,28.64,NE,45,1.0,1.0,79,0.00,,,0.00,meteohub,2013-06-02 11:53:00,
2013-06-02 06:59:00,59.7,52.9,28.65,NE,45,1.0,2.0,78,0.00,,,0.00,meteohub,2013-06-02 11:59:00,
2013-06-02 07:04:00,60.3,53.4,28.65,NE,45,1.0,2.0,78,0.00,,,0.00,meteohub,2013-06-02 12:04:00,
2013-06-02 07:09:00,60.8,53.6,28.66,North,0,1.0,2.0,77,0.00,,,0.00,meteohub,2013-06-02 12:09:00,
2013-06-02 07:14:00,61.2,53.6,28.65,NE,45,1.0,2.0,76,0.00,,,0.00,meteohub,2013-06-02 12:14:00,
2013-06-02 07:19:00,61.7,53.8,28.65,NE,45,1.0,2.0,75,0.00,,,0.00,meteohub,2013-06-02 12:19:00,
2013-06-02 07:24:00,61.5,53.6,28.65,West,270,2.0,4.0,75,0.00,,,0.00,meteohub,2013-06-02 12:24:00,
2013-06-02 07:29:00,61.9,53.8,28.64,NE,45,2.0,4.0,75,0.00,,,0.00,meteohub,2013-06-02 12:29:00,
2013-06-02 07:34:00,62.1,53.6,28.65,NE,45,7.0,7.0,74,0.00,,,0.00,meteohub,2013-06-02 12:34:00,
2013-06-02 07:39:00,62.1,53.6,28.65,NE,45,8.0,8.0,74,0.00,,,0.00,meteohub,2013-06-02 12:39:00,
2013-06-02 07:44:00,62.2,53.8,28.64,North,0,8.0,8.0,74,0.00,,,0.00,meteohub,2013-06-02 12:44:00,
2013-06-02 07:49:00,62.6,53.8,28.64,NE,45,9.0,10.0,73,0.00,,,0.00,meteohub,2013-06-02 12:49:00,
2013-06-02 07:54:00,63.0,53.8,28.64,NE,45,10.0,12.0,72,0.00,,,0.00,meteohub,2013-06-02 12:54:00,
2013-06-02 07:59:00,63.1,53.6,28.64,NE,45,10.0,12.0,71,0.00,,,0.00,meteohub,2013-06-02 12:59:00,
2013-06-02 08:04:00,63.9,54.3,28.64,East,90,8.0,12.0,71,0.00,,,0.00,meteohub,2013-06-02 13:04:00,
2013-06-02 08:09:00,64.2,53.8,28.64,North,0,10.0,15.0,69,0.00,,,0.00,meteohub,2013-06-02 13:09:00,
2013-06-02 08:14:00,64.6,52.5,28.64,East,90,9.0,15.0,65,0.00,,,0.00,meteohub,2013-06-02 13:14:00,
2013-06-02 08:19:00,64.8,52.3,28.64,NE,45,8.0,15.0,64,0.00,,,0.00,meteohub,2013-06-02 13:19:00,
2013-06-02 08:24:00,64.8,51.8,28.64,North,0,5.0,12.0,63,0.00,,,0.00,meteohub,2013-06-02 13:24:00,
2013-06-02 08:29:00,65.5,50.7,28.64,North,0,15.0,15.0,59,0.00,,,0.00,meteohub,2013-06-02 13:29:00,
2013-06-02 08:34:00,65.5,50.4,28.65,East,90,14.0,14.0,58,0.00,,,0.00,meteohub,2013-06-02 13:34:00,
2013-06-02 08:39:00,65.5,49.8,28.65,East,90,14.0,16.0,57,0.00,,,0.00,meteohub,2013-06-02 13:39:00,
2013-06-02 08:44:00,65.7,50.0,28.65,North,0,11.0,16.0,57,0.00,,,0.00,meteohub,2013-06-02 13:44:00,
2013-06-02 08:49:00,65.8,50.2,28.64,North,0,10.0,18.0,57,0.00,,,0.00,meteohub,2013-06-02 13:49:00,
2013-06-02 08:54:00,66.0,49.8,28.64,NE,45,15.0,18.0,56,0.00,,,0.00,meteohub,2013-06-02 13:54:00,
2013-06-02 08:59:00,66.6,50.4,28.65,NE,45,11.0,18.0,56,0.00,,,0.00,meteohub,2013-06-02 13:59:00,
2013-06-02 09:04:00,66.6,49.8,28.65,East,90,13.0,16.0,55,0.00,,,0.00,meteohub,2013-06-02 14:04:00,
2013-06-02 09:09:00,66.9,50.2,28.65,NE,45,8.0,15.0,55,0.00,,,0.00,meteohub,2013-06-02 14:09:00,
2013-06-02 09:14:00,67.1,50.4,28.65,North,0,15.0,17.0,55,0.00,,,0.00,meteohub,2013-06-02 14:14:00,
2013-06-02 09:19:00,67.3,50.0,28.65,NE,45,15.0,17.0,54,0.00,,,0.00,meteohub,2013-06-02 14:19:00,
2013-06-02 09:24:00,67.5,50.7,28.65,East,90,2.0,15.0,55,0.00,,,0.00,meteohub,2013-06-02 14:24:00,
2013-06-02 09:29:00,68.0,50.7,28.65,North,0,11.0,15.0,54,0.00,,,0.00,meteohub,2013-06-02 14:29:00,
2013-06-02 09:34:00,68.4,51.1,28.65,East,90,8.0,15.0,54,0.00,,,0.00,meteohub,2013-06-02 14:34:00,
2013-06-02 09:39:00,68.9,50.0,28.65,NE,45,11.0,14.0,51,0.00,,,0.00,meteohub,2013-06-02 14:39:00,
2013-06-02 09:44:00,68.7,49.8,28.65,NE,45,11.0,14.0,51,0.00,,,0.00,meteohub,2013-06-02 14:44:00,
2013-06-02 09:49:00,69.4,51.1,28.65,North,0,8.0,14.0,52,0.00,,,0.00,meteohub,2013-06-02 14:49:00,
2013-06-02 09:54:00,69.4,50.0,28.65,NE,45,11.0,11.0,50,0.00,,,0.00,meteohub,2013-06-02 14:54:00,
2013-06-02 09:59:00,69.3,49.8,28.65,NE,45,11.0,16.0,50,0.00,,,0.00,meteohub,2013-06-02 14:59:00,
2013-06-02 10:04:00,70.0,50.0,28.64,SE,135,9.0,16.0,49,0.00,,,0.00,meteohub,2013-06-02 15:04:00,
2013-06-02 10:09:00,70.0,49.5,28.64,NE,45,8.0,16.0,48,0.00,,,0.00,meteohub,2013-06-02 15:09:00,
2013-06-02 10:14:00,70.7,50.5,28.64,North,0,7.0,13.0,49,0.00,,,0.00,meteohub,2013-06-02 15:14:00,
2013-06-02 10:19:00,70.7,49.5,28.64,NE,45,6.0,12.0,47,0.00,,,0.00,meteohub,2013-06-02 15:19:00,
2013-06-02 10:24:00,70.9,49.6,28.64,NE,45,4.0,11.0,47,0.00,,,0.00,meteohub,2013-06-02 15:24:00,
2013-06-02 10:29:00,71.4,48.9,28.64,East,90,11.0,12.0,45,0.00,,,0.00,meteohub,2013-06-02 15:29:00,
2013-06-02 10:34:00,71.6,49.6,28.64,East,90,3.0,12.0,46,0.00,,,0.00,meteohub,2013-06-02 15:34:00,
2013-06-02 10:39:00,71.8,49.3,28.64,North,0,8.0,12.0,45,0.00,,,0.00,meteohub,2013-06-02 15:39:00,
2013-06-02 10:44:00,72.3,49.8,28.64,East,90,3.0,13.0,45,0.00,,,0.00,meteohub,2013-06-02 15:44:00,
2013-06-02 10:53:00,72.9,49.6,28.65,NE,45,2.0,11.0,44,0.00,,,0.00,meteohub,2013-06-02 15:53:00,
2013-06-02 10:58:00,73.9,49.5,28.65,NE,45,7.0,9.0,42,0.00,,,0.00,meteohub,2013-06-02 15:58:00,
2013-06-02 11:03:00,73.6,48.4,28.64,North,0,6.0,8.0,41,0.00,,,0.00,meteohub,2013-06-02 16:03:00,
2013-06-02 11:09:00,73.8,49.3,28.65,East,90,7.0,8.0,42,0.00,,,0.00,meteohub,2013-06-02 16:09:00,
2013-06-02 11:14:00,74.3,49.1,28.64,SE,135,4.0,8.0,41,0.00,,,0.00,meteohub,2013-06-02 16:14:00,
2013-06-02 11:19:00,74.3,49.1,28.65,NE,45,2.0,8.0,41,0.00,,,0.00,meteohub,2013-06-02 16:19:00,
2013-06-02 11:24:00,73.9,48.0,28.65,North,0,2.0,8.0,40,0.00,,,0.00,meteohub,2013-06-02 16:24:00,
2013-06-02 11:29:00,74.5,48.6,28.65,East,90,1.0,8.0,40,0.00,,,0.00,meteohub,2013-06-02 16:29:00,
2013-06-02 11:34:00,75.0,49.1,28.65,NE,45,1.0,8.0,40,0.00,,,0.00,meteohub,2013-06-02 16:34:00,
2013-06-02 11:40:00,75.4,48.0,28.64,NE,45,8.0,8.0,38,0.00,,,0.00,meteohub,2013-06-02 16:40:00,
2013-06-02 11:45:00,75.0,49.6,28.64,NE,45,4.0,9.0,41,0.00,,,0.00,meteohub,2013-06-02 16:45:00,
2013-06-02 11:50:00,76.1,50.0,28.65,NE,45,2.0,9.0,40,0.00,,,0.00,meteohub,2013-06-02 16:50:00,
2013-06-02 11:55:00,76.5,48.9,28.64,North,0,4.0,9.0,38,0.00,,,0.00,meteohub,2013-06-02 16:55:00,
2013-06-02 12:00:00,75.9,48.6,28.64,East,90,1.0,10.0,38,0.00,,,0.00,meteohub,2013-06-02 17:00:00,
2013-06-02 12:05:00,76.5,49.6,28.64,NW,315,2.0,10.0,39,0.00,,,0.00,meteohub,2013-06-02 17:05:00,
2013-06-02 12:10:00,76.6,48.4,28.64,East,90,0.0,10.0,37,0.00,,,0.00,meteohub,2013-06-02 17:10:00,
2013-06-02 12:15:00,77.2,49.6,28.64,North,0,1.0,6.0,38,0.00,,,0.00,meteohub,2013-06-02 17:15:00,
2013-06-02 12:20:00,77.4,48.4,28.64,East,90,7.0,7.0,36,0.00,,,0.00,meteohub,2013-06-02 17:20:00,
2013-06-02 12:25:00,77.7,49.5,28.64,SW,225,1.0,7.0,37,0.00,,,0.00,meteohub,2013-06-02 17:25:00,
2013-06-02 12:30:00,77.7,49.5,28.64,East,90,1.0,7.0,37,0.00,,,0.00,meteohub,2013-06-02 17:30:00,
2013-06-02 12:35:00,78.3,47.7,28.63,East,90,1.0,7.0,34,0.00,,,0.00,meteohub,2013-06-02 17:35:00,
2013-06-02 12:40:00,77.5,47.7,28.64,East,90,0.0,8.0,35,0.00,,,0.00,meteohub,2013-06-02 17:40:00,
2013-06-02 12:45:00,78.1,47.5,28.63,East,90,1.0,8.0,34,0.00,,,0.00,meteohub,2013-06-02 17:45:00,
2013-06-02 12:50:00,78.8,48.9,28.63,NE,45,1.0,7.0,35,0.00,,,0.00,meteohub,2013-06-02 17:50:00,
2013-06-02 12:55:00,78.6,47.1,28.63,East,90,2.0,7.0,33,0.00,,,0.00,meteohub,2013-06-02 17:55:00,
2013-06-02 13:00:00,78.1,48.2,28.63,NE,45,1.0,2.0,35,0.00,,,0.00,meteohub,2013-06-02 18:00:00,
2013-06-02 13:05:00,78.4,48.6,28.62,NE,45,1.0,5.0,35,0.00,,,0.00,meteohub,2013-06-02 18:05:00,
2013-06-02 13:10:00,79.3,46.9,28.62,East,90,2.0,5.0,32,0.00,,,0.00,meteohub,2013-06-02 18:10:00,
2013-06-02 13:15:00,79.2,47.7,28.62,East,90,1.0,5.0,33,0.00,,,0.00,meteohub,2013-06-02 18:15:00,
2013-06-02 13:20:00,78.8,48.0,28.62,East,90,4.0,6.0,34,0.00,,,0.00,meteohub,2013-06-02 18:20:00,
2013-06-02 13:25:00,78.8,47.3,28.61,NW,315,1.0,7.0,33,0.00,,,0.00,meteohub,2013-06-02 18:25:00,
2013-06-02 13:30:00,79.7,46.4,28.62,NE,45,1.0,7.0,31,0.00,,,0.00,meteohub,2013-06-02 18:30:00,
2013-06-02 13:35:00,80.4,48.7,28.61,NW,315,1.0,4.0,33,0.00,,,0.00,meteohub,2013-06-02 18:35:00,
2013-06-02 13:40:00,81.3,46.0,28.61,North,0,2.0,3.0,29,0.00,,,0.00,meteohub,2013-06-02 18:40:00,
2013-06-02 13:45:00,81.3,46.0,28.61,East,90,0.0,3.0,29,0.00,,,0.00,meteohub,2013-06-02 18:45:00,
2013-06-02 13:50:00,81.1,45.0,28.60,North,0,1.0,3.0,28,0.00,,,0.00,meteohub,2013-06-02 18:50:00,
2013-06-02 13:55:00,81.0,47.5,28.60,NE,45,2.0,3.0,31,0.00,,,0.00,meteohub,2013-06-02 18:55:00,
2013-06-02 14:00:00,80.6,45.3,28.59,East,90,1.0,2.0,29,0.00,,,0.00,meteohub,2013-06-02 19:00:00,
2013-06-02 14:05:00,80.4,44.2,28.59,NE,45,1.0,5.0,28,0.00,,,0.00,meteohub,2013-06-02 19:05:00,
2013-06-02 14:10:00,80.8,44.6,28.59,North,0,1.0,5.0,28,0.00,,,0.00,meteohub,2013-06-02 19:10:00,
2013-06-02 14:15:00,81.0,46.6,28.59,NE,45,1.0,5.0,30,0.00,,,0.00,meteohub,2013-06-02 19:15:00,
2013-06-02 14:20:00,81.5,46.2,28.59,SE,135,2.0,6.0,29,0.00,,,0.00,meteohub,2013-06-02 19:20:00,
2013-06-02 14:25:00,81.5,46.2,28.58,East,90,1.0,6.0,29,0.00,,,0.00,meteohub,2013-06-02 19:25:00,
2013-06-02 14:30:00,82.2,45.0,28.58,SW,225,1.0,6.0,27,0.00,,,0.00,meteohub,2013-06-02 19:30:00,
2013-06-02 14:35:00,82.0,44.8,28.58,East,90,2.0,6.0,27,0.00,,,0.00,meteohub,2013-06-02 19:35:00,
2013-06-02 14:40:00,81.9,46.4,28.57,NE,45,1.0,6.0,29,0.00,,,0.00,meteohub,2013-06-02 19:40:00,
2013-06-02 14:46:00,82.2,48.6,28.57,NE,45,4.0,8.0,31,0.00,,,0.00,meteohub,2013-06-02 19:46:00,
2013-06-02 14:51:00,82.4,46.0,28.57,North,0,1.0,8.0,28,0.00,,,0.00,meteohub,2013-06-02 19:51:00,
2013-06-02 14:56:00,82.4,45.1,28.57,North,0,2.0,8.0,27,0.00,,,0.00,meteohub,2013-06-02 19:56:00,
2013-06-02 15:01:00,82.8,43.3,28.56,NW,315,1.0,8.0,25,0.00,,,0.00,meteohub,2013-06-02 20:01:00,
2013-06-02 15:06:00,82.9,45.5,28.56,NW,315,2.0,8.0,27,0.00,,,0.00,meteohub,2013-06-02 20:06:00,
2013-06-02 15:11:00,83.5,43.0,28.56,North,0,1.0,4.0,24,0.00,,,0.00,meteohub,2013-06-02 20:11:00,
2013-06-02 15:16:00,83.5,43.0,28.55,NW,315,2.0,4.0,24,0.00,,,0.00,meteohub,2013-06-02 20:16:00,
2013-06-02 15:21:00,83.1,42.6,28.56,North,0,3.0,5.0,24,0.00,,,0.00,meteohub,2013-06-02 20:21:00,
2013-06-02 15:26:00,82.9,41.4,28.55,NW,315,1.0,8.0,23,0.00,,,0.00,meteohub,2013-06-02 20:26:00,
2013-06-02 15:31:00,82.8,42.3,28.55,East,90,0.0,8.0,24,0.00,,,0.00,meteohub,2013-06-02 20:31:00,
2013-06-02 15:36:00,82.8,41.2,28.54,East,90,1.0,4.0,23,0.00,,,0.00,meteohub,2013-06-02 20:36:00,
2013-06-02 15:41:00,82.9,44.6,28.54,NE,45,1.0,1.0,26,0.00,,,0.00,meteohub,2013-06-02 20:41:00,
2013-06-02 15:46:00,83.5,43.0,28.54,SE,135,5.0,5.0,24,0.00,,,0.00,meteohub,2013-06-02 20:46:00,
2013-06-02 15:51:00,84.0,42.3,28.53,North,0,1.0,5.0,23,0.00,,,0.00,meteohub,2013-06-02 20:51:00,
2013-06-02 15:56:00,84.6,41.5,28.53,East,90,1.0,5.0,22,0.00,,,0.00,meteohub,2013-06-02 20:56:00,
2013-06-02 16:01:00,85.6,42.4,28.53,East,90,1.0,5.0,22,0.00,,,0.00,meteohub,2013-06-02 21:01:00,
2013-06-02 16:06:00,86.0,43.9,28.53,West,270,1.0,4.0,23,0.00,,,0.00,meteohub,2013-06-02 21:06:00,
2013-06-02 16:11:00,86.0,39.0,28.53,West,270,1.0,4.0,19,0.00,,,0.00,meteohub,2013-06-02 21:11:00,
2013-06-02 16:24:00,86.5,40.6,28.52,South,180,1.0,4.0,20,0.00,,,0.00,meteohub,2013-06-02 21:24:00,
2013-06-02 16:29:00,86.4,37.9,28.52,West,270,2.0,4.0,18,0.00,,,0.00,meteohub,2013-06-02 21:29:00,
2013-06-02 16:34:00,86.4,39.2,28.51,SE,135,2.0,4.0,19,0.00,,,0.00,meteohub,2013-06-02 21:34:00,
2013-06-02 16:39:00,85.5,38.5,28.51,NE,45,2.0,4.0,19,0.00,,,0.00,meteohub,2013-06-02 21:39:00,
2013-06-02 16:44:00,85.1,41.9,28.51,East,90,3.0,5.0,22,0.00,,,0.00,meteohub,2013-06-02 21:44:00,
2013-06-02 16:49:00,84.7,40.5,28.51,NE,45,1.0,5.0,21,0.00,,,0.00,meteohub,2013-06-02 21:49:00,
2013-06-02 16:54:00,84.7,39.2,28.51,North,0,2.0,5.0,20,0.00,,,0.00,meteohub,2013-06-02 21:54:00,
2013-06-02 17:00:00,85.1,41.9,28.51,North,0,1.0,3.0,22,0.00,,,0.00,meteohub,2013-06-02 22:00:00,
2013-06-02 17:05:00,85.5,42.3,28.50,NE,45,2.0,3.0,22,0.00,,,0.00,meteohub,2013-06-02 22:05:00,
2013-06-02 17:14:00,85.5,39.7,28.50,East,90,0.0,4.0,20,0.00,,,0.00,meteohub,2013-06-02 22:14:00,
2013-06-02 17:19:00,86.0,40.3,28.49,SE,135,1.0,6.0,20,0.00,,,0.00,meteohub,2013-06-02 22:19:00,
2013-06-02 17:24:00,85.3,39.7,28.49,East,90,1.0,6.0,20,0.00,,,0.00,meteohub,2013-06-02 22:24:00,
2013-06-02 17:29:00,85.3,39.7,28.49,North,0,1.0,6.0,20,0.00,,,0.00,meteohub,2013-06-02 22:29:00,
2013-06-02 17:34:00,85.1,41.9,28.49,North,0,0.0,4.0,22,0.00,,,0.00,meteohub,2013-06-02 22:34:00,
2013-06-02 17:46:00,86.0,40.3,28.48,SE,135,1.0,4.0,20,0.00,,,0.00,meteohub,2013-06-02 22:46:00,
2013-06-02 17:51:00,85.5,39.7,28.48,NE,45,1.0,4.0,20,0.00,,,0.00,meteohub,2013-06-02 22:51:00,
2013-06-02 17:56:00,85.8,40.1,28.48,SE,135,1.0,4.0,20,0.00,,,0.00,meteohub,2013-06-02 22:56:00,
2013-06-02 18:01:00,85.8,40.1,28.48,NE,45,1.0,2.0,20,0.00,,,0.00,meteohub,2013-06-02 23:01:00,
2013-06-02 18:06:00,86.2,40.5,28.48,NE,45,1.0,2.0,20,0.00,,,0.00,meteohub,2013-06-02 23:06:00,
2013-06-02 18:11:00,86.0,41.5,28.47,NE,45,0.0,2.0,21,0.00,,,0.00,meteohub,2013-06-02 23:11:00,
2013-06-02 18:16:00,85.5,38.5,28.47,NE,45,1.0,2.0,19,0.00,,,0.00,meteohub,2013-06-02 23:16:00,
2013-06-02 18:21:00,85.3,41.0,28.47,North,0,1.0,2.0,21,0.00,,,0.00,meteohub,2013-06-02 23:21:00,
2013-06-02 18:26:00,85.1,39.6,28.47,East,90,1.0,2.0,20,0.00,,,0.00,meteohub,2013-06-02 23:26:00,
2013-06-02 18:31:00,85.5,39.7,28.47,SE,135,1.0,4.0,20,0.00,,,0.00,meteohub,2013-06-02 23:31:00,
2013-06-02 18:36:00,85.5,39.7,28.47,SE,135,1.0,4.0,20,0.00,,,0.00,meteohub,2013-06-02 23:36:00,
2013-06-02 18:41:00,85.6,41.2,28.47,East,90,1.0,4.0,21,0.00,,,0.00,meteohub,2013-06-02 23:41:00,
2013-06-02 18:46:00,85.5,39.7,28.47,East,90,1.0,1.0,20,0.00,,,0.00,meteohub,2013-06-02 23:46:00,
2013-06-02 18:51:00,85.1,38.1,28.47,East,90,1.0,1.0,19,0.00,,,0.00,meteohub,2013-06-02 23:51:00,
2013-06-02 18:56:00,84.9,40.6,28.46,East,90,1.0,1.0,21,0.00,,,0.00,meteohub,2013-06-02 23:56:00,
2013-06-02 19:01:00,84.6,39.0,28.46,NE,45,5.0,5.0,20,0.00,,,0.00,meteohub,2013-06-03 00:01:00,
2013-06-02 19:06:00,84.4,39.0,28.46,NE,45,0.0,8.0,20,0.00,,,0.00,meteohub,2013-06-03 00:06:00,
2013-06-02 19:13:00,84.4,39.0,28.46,East,90,1.0,8.0,20,0.00,,,0.00,meteohub,2013-06-03 00:13:00,
2013-06-02 19:20:00,84.0,39.9,28.45,SE,135,1.0,8.0,21,0.00,,,0.00,meteohub,2013-06-03 00:20:00,
2013-06-02 19:25:00,83.5,38.1,28.45,East,90,8.0,8.0,20,0.00,,,0.00,meteohub,2013-06-03 00:25:00,
2013-06-02 19:30:00,82.9,40.1,28.45,NE,45,1.0,7.0,22,0.00,,,0.00,meteohub,2013-06-03 00:30:00,
2013-06-02 19:42:00,82.0,41.7,28.45,East,90,1.0,8.0,24,0.00,,,0.00,meteohub,2013-06-03 00:42:00,
2013-06-02 19:47:00,81.7,41.4,28.45,SE,135,1.0,7.0,24,0.00,,,0.00,meteohub,2013-06-03 00:47:00,
2013-06-02 19:52:00,81.1,41.9,28.45,East,90,1.0,4.0,25,0.00,,,0.00,meteohub,2013-06-03 00:52:00,
2013-06-02 19:57:00,81.1,41.9,28.45,NW,315,2.0,5.0,25,0.00,,,0.00,meteohub,2013-06-03 00:57:00,
2013-06-02 20:02:00,81.0,41.9,28.45,NE,45,0.0,5.0,25,0.00,,,0.00,meteohub,2013-06-03 01:02:00,
2013-06-02 20:07:00,80.6,41.5,28.45,East,90,7.0,7.0,25,0.00,,,0.00,meteohub,2013-06-03 01:07:00,
2013-06-02 20:12:00,80.2,42.3,28.45,SE,135,6.0,7.0,26,0.00,,,0.00,meteohub,2013-06-03 01:12:00,
2013-06-02 20:17:00,79.9,41.9,28.45,NE,45,3.0,7.0,26,0.00,,,0.00,meteohub,2013-06-03 01:17:00,
2013-06-02 20:22:00,79.5,41.5,28.45,East,90,2.0,7.0,26,0.00,,,0.00,meteohub,2013-06-03 01:22:00,
2013-06-02 20:27:00,79.3,41.5,28.44,NE,45,8.0,8.0,26,0.00,,,0.00,meteohub,2013-06-03 01:27:00,
2013-06-02 20:32:00,78.8,42.1,28.45,NE,45,1.0,8.0,27,0.00,,,0.00,meteohub,2013-06-03 01:32:00,
2013-06-02 20:37:00,78.4,42.6,28.45,East,90,1.0,8.0,28,0.00,,,0.00,meteohub,2013-06-03 01:37:00,
2013-06-02 20:42:00,77.9,43.2,28.45,East,90,0.0,8.0,29,0.00,,,0.00,meteohub,2013-06-03 01:42:00,
2013-06-02 20:47:00,77.7,43.9,28.45,East,90,1.0,4.0,30,0.00,,,0.00,meteohub,2013-06-03 01:47:00,
2013-06-02 20:52:00,77.0,44.1,28.44,NE,45,1.0,4.0,31,0.00,,,0.00,meteohub,2013-06-03 01:52:00,
2013-06-02 20:57:00,76.8,45.5,28.45,East,90,1.0,4.0,33,0.00,,,0.00,meteohub,2013-06-03 01:57:00,
2013-06-02 21:02:00,76.3,45.1,28.45,NE,45,1.0,5.0,33,0.00,,,0.00,meteohub,2013-06-03 02:02:00,
2013-06-02 21:07:00,75.9,44.8,28.45,NE,45,1.0,5.0,33,0.00,,,0.00,meteohub,2013-06-03 02:07:00,
2013-06-02 21:12:00,75.4,45.1,28.45,NE,45,1.0,5.0,34,0.00,,,0.00,meteohub,2013-06-03 02:12:00,
2013-06-02 21:17:00,75.2,45.0,28.45,North,0,1.0,4.0,34,0.00,,,0.00,meteohub,2013-06-03 02:17:00,
2013-06-02 21:22:00,75.0,45.5,28.45,ENE,68,1.0,4.0,35,0.00,,,0.00,meteohub,2013-06-03 02:22:00,
2013-06-02 21:27:00,74.8,46.0,28.45,NE,45,1.0,4.0,36,0.00,,,0.00,meteohub,2013-06-03 02:27:00,
2013-06-02 21:32:00,74.7,46.6,28.45,SE,135,2.0,2.0,37,0.00,,,0.00,meteohub,2013-06-03 02:32:00,
2013-06-02 21:37:00,74.1,46.2,28.45,SE,135,8.0,8.0,37,0.00,,,0.00,meteohub,2013-06-03 02:37:00,
2013-06-02 21:42:00,73.8,47.3,28.45,SE,135,0.0,8.0,39,0.00,,,0.00,meteohub,2013-06-03 02:42:00,
2013-06-02 21:47:00,73.2,46.8,28.46,East,90,1.0,8.0,39,0.00,,,0.00,meteohub,2013-06-03 02:47:00,
2013-06-02 21:52:00,72.7,47.7,28.46,SE,135,7.0,8.0,41,0.00,,,0.00,meteohub,2013-06-03 02:52:00,
2013-06-02 21:57:00,72.3,47.3,28.46,East,90,5.0,7.0,41,0.00,,,0.00,meteohub,2013-06-03 02:57:00,
2013-06-02 22:02:00,72.0,47.7,28.46,East,90,8.0,9.0,42,0.00,,,0.00,meteohub,2013-06-03 03:02:00,
2013-06-02 22:08:00,71.6,47.8,28.47,East,90,2.0,9.0,43,0.00,,,0.00,meteohub,2013-06-03 03:08:00,
2013-06-02 22:13:00,71.2,47.7,28.47,East,90,6.0,11.0,43,0.00,,,0.00,meteohub,2013-06-03 03:13:00,
2013-06-02 22:18:00,71.4,47.8,28.48,East,90,1.0,11.0,43,0.00,,,0.00,meteohub,2013-06-03 03:18:00,
2013-06-02 22:23:00,70.9,47.8,28.48,NE,45,10.0,11.0,44,0.00,,,0.00,meteohub,2013-06-03 03:23:00,
2013-06-02 22:28:00,70.9,47.8,28.48,NE,45,8.0,11.0,44,0.00,,,0.00,meteohub,2013-06-03 03:28:00,
2013-06-02 22:33:00,70.7,48.4,28.48,NE,45,11.0,11.0,45,0.00,,,0.00,meteohub,2013-06-03 03:33:00,
2013-06-02 22:38:00,70.5,48.2,28.48,SE,135,11.0,11.0,45,0.00,,,0.00,meteohub,2013-06-03 03:38:00,
2013-06-02 23:54:00,68.2,50.4,28.50,SE,135,7.0,10.0,53,0.00,,,0.00,meteohub,2013-06-03 04:54:00,
2013-06-02 23:55:00,68.0,50.2,28.50,East,90,8.0,10.0,53,0.00,,,0.00,meteohub,2013-06-03 04:55:00,